Вернуться в каталог

STARLINK-32507

АктивенСвязьVLEO
NORAD 62132·PAYLOAD·🇺🇸 United States

Запущен Nov 27, 2024 с Cape Canaveral Space Force Station

Loading…

Ближайшие Пролёты (ближайшие 24 часа)

TLE

СвежийSource: CelesTrak SupGP

Эпоха: Sep 14, 2026, 22:34 UTC

1 62132C 24222U   26257.94076389 -.00036927  00000+0 -13378-2 0  2573
2 62132  42.9989 146.9792 0001324 272.1057 218.4140 15.27588717    11

Отслеживайте STARLINK-32507 в реальном времени с AllMySat

Download on the App Store